Location: Larkspur
(54.4391°N, 113.7691°W)
Time: 02:07:28
(UTC+00:00)

YUBILEINY - Pass Details

Date: 08 December 2023
Orbit: 1479 x 1508 km, 82.5° (Epoch: 03 March)

Event Time Altitude Azimuth Distance (km) Brightness Sun altitude
Rises 01:30:56 0° 344° (NNW) 4,636 ? -18.9°
Reaches altitude 10° 01:34:25 10° 355° (N) 3,648 ? -19.4°
Maximum altitude 01:41:50 29° 53° (NE) 2,447 ? -20.4°
Enters shadow 01:42:41 29° 63° (ENE) 2,465 ? -20.5°
